FW8385 Weather Reports


time (UTC)temp
C
wind
direction
speed
KPH
gust
KPH
rain 1hr
cm
rain 24hr
cm
rain mn
cm
humidity
%
barometer
mb
20211017164053 10 0 0.0 9.7 0.00 0.00 0.00 82 1010.9
20211017163555 10 0 0.0 8.0 0.00 0.00 0.00 84 1010.8
20211017163130 10 190 0.0 4.8 0.00 0.00 0.00 87 1010.9
20211017162607 9 0 0.0 4.8 0.00 0.00 0.00 88 1011.1
20211017162105 8 0 0.0 4.8 0.00 0.00 0.00 86 1011.1
20211017161646 9 0 1.6 4.8 0.00 0.00 0.00 85 1011.2
20211017161048 9 0 0.0 4.8 0.00 0.00 0.00 86 1011.2
20211017160550 9 200 0.0 4.8 0.00 0.00 0.00 87 1011.3
20211017160133 8 0 0.0 8.0 0.00 0.00 0.00 86 1011.3
20211017155548 8 0 1.6 8.0 0.00 0.00 0.00 87 1011.4
20211017155108 8 0 0.0 4.8 0.00 0.00 0.00 87 1011.5
20211017154617 8 321 0.0 4.8 0.00 0.00 0.00 88 1011.4
20211017154110 9 0 0.0 6.4 0.00 0.00 0.00 88 1011.5
20211017153546 9 0 0.0 6.4 0.00 0.00 0.00 89 1011.6
20211017153202 8 294 1.6 6.4 0.00 0.00 0.00 90 1011.6
20211017152548 8 310 0.0 6.4 0.00 0.00 0.00 90 1011.6
20211017152048 8 0 0.0 6.4 0.00 0.00 0.00 89 1011.6
20211017151655 8 117 0.0 8.0 0.00 0.00 0.00 90 1011.6
20211017151053 8 311 0.0 8.0 0.00 0.00 0.00 91 1011.6
20211017150549 8 0 0.0 6.4 0.00 0.00 0.00 90 1011.6
20211017150304 8 0 0.0 6.4 0.00 0.00 0.00 91 1011.6
20211017145548 8 290 1.6 8.0 0.00 0.00 0.00 92 1011.7
20211017145049 8 277 0.0 8.0 0.00 0.00 0.00 92 1011.6
20211017144629 8 348 0.0 4.8 0.00 0.00 0.00 92 1011.6
20211017144047 8 55 0.0 4.8 0.00 0.00 0.00 93 1011.6
20211017143547 7 0 0.0 4.8 0.00 0.00 0.00 93 1011.7
20211017143121 7 0 0.0 4.8 0.00 0.00 0.00 93 1011.6
20211017142548 7 218 0.0 4.8 0.00 0.00 0.00 93 1011.8
20211017142047 7 0 0.0 4.8 0.00 0.00 0.00 93 1011.7
20211017141633 7 0 0.0 4.8 0.00 0.00 0.00 93 1011.8
20211017141056 7 0 0.0 4.8 0.00 0.00 0.00 93 1011.7
20211017140549 7 0 0.0 4.8 0.00 0.00 0.00 93 1011.6
20211017140058 8 0 0.0 6.4 0.00 0.00 0.00 92 1011.6
20211017135545 8 0 0.0 6.4 0.00 0.00 0.00 93 1011.6
20211017135059 8 300 0.0 4.8 0.00 0.00 0.00 93 1011.6
20211017134821 8 0 0.0 8.0 0.00 0.00 0.00 94 1011.7
20211017134047 8 0 0.0 8.0 0.00 0.00 0.00 94 1011.6
20211017133545 8 0 1.6 9.7 0.00 0.00 0.00 95 1011.7
20211017133202 7 0 1.6 9.7 0.00 0.00 0.00 95 1011.6
20211017132544 7 0 1.6 6.4 0.00 0.00 0.00 96 1011.6
20211017132044 7 0 0.0 6.4 0.00 0.00 0.00 96 1011.6
20211017131637 7 306 1.6 6.4 0.00 0.00 0.00 97 1011.5
20211017131043 7 300 0.0 6.4 0.00 0.00 0.00 97 1011.5
20211017130547 7 0 0.0 6.4 0.00 0.00 0.00 97 1011.5
20211017130148 7 0 0.0 6.4 0.00 0.00 0.00 97 1011.5
20211017125604 7 0 0.0 6.4 0.00 0.00 0.00 97 1011.4
20211017125045 7 311 0.0 9.7 0.00 0.00 0.00 97 1011.4
20211017124649 7 0 1.6 9.7 0.00 0.00 0.00 97 1011.3
20211017124046 7 0 0.0 8.0 0.00 0.00 0.00 97 1011.3
20211017123554 7 344 0.0 8.0 0.00 0.00 0.00 98 1011.2
20211017123215 7 0 0.0 8.0 0.00 0.00 0.00 97 1011.3
20211017122545 7 0 1.6 8.0 0.00 0.00 0.00 98 1011.3
20211017122051 6 0 0.0 6.4 0.00 0.00 0.00 98 1011.4
20211017121642 6 300 0.0 6.4 0.00 0.00 0.00 98 1011.2
20211017121049 6 317 0.0 6.4 0.00 0.00 0.00 98 1011.1
20211017120549 6 0 0.0 4.8 0.00 0.00 0.00 98 1011.1
20211017120118 6 0 0.0 4.8 0.00 0.00 0.00 98 1011.1
20211017115546 6 302 0.0 4.8 0.00 0.00 0.00 98 1011.1
20211017115046 6 0 0.0 6.4 0.00 0.00 0.00 98 1011.1
20211017114615 6 302 0.0 6.4 0.00 0.00 0.00 98 1011.1
20211017114048 6 322 0.0 4.8 0.00 0.00 0.00 98 1011.1
20211017113548 6 301 0.0 4.8 0.00 0.00 0.00 98 1011.0
20211017113116 6 288 0.0 4.8 0.00 0.00 0.00 98 1011.0
20211017112546 6 0 0.0 6.4 0.00 0.00 0.00 98 1011.0
20211017112046 6 0 0.0 6.4 0.00 0.00 0.00 98 1010.9
20211017111623 6 0 0.0 4.8 0.00 0.00 0.00 98 1010.8
20211017111052 6 317 0.0 6.4 0.00 0.00 0.00 98 1010.9
20211017110546 6 0 0.0 6.4 0.00 0.00 0.00 98 1010.9
20211017110229 6 311 0.0 4.8 0.00 0.00 0.00 98 1010.7
20211017105546 6 301 1.6 4.8 0.00 0.00 0.00 98 1010.7
20211017105054 6 0 0.0 4.8 0.00 0.00 0.00 98 1010.7
20211017104602 6 313 0.0 3.2 0.00 0.00 0.00 98 1010.7
20211017104056 6 0 0.0 3.2 0.00 0.00 0.00 98 1010.8
20211017103553 6 284 0.0 3.2 0.00 0.00 0.00 98 1010.7
20211017103115 6 319 0.0 6.4 0.00 0.00 0.00 98 1010.7
20211017102554 6 0 0.0 6.4 0.00 0.00 0.00 98 1010.7
20211017102048 6 0 0.0 6.4 0.00 0.00 0.00 98 1010.7
20211017101604 6 0 0.0 4.8 0.00 0.00 0.00 98 1010.7
20211017101052 6 333 0.0 4.8 0.00 0.00 0.00 98 1010.7
20211017100547 6 44 0.0 4.8 0.00 0.00 0.00 98 1010.6
20211017100158 6 323 0.0 3.2 0.00 0.00 0.00 98 1010.7
20211017095548 6 0 0.0 6.4 0.00 0.00 0.00 98 1010.7
20211017095048 6 221 1.6 6.4 0.00 0.00 0.00 98 1010.7
20211017094644 6 285 0.0 4.8 0.00 0.00 0.00 98 1010.7
20211017094047 6 0 0.0 4.8 0.00 0.00 0.00 98 1010.7
20211017093548 6 0 0.0 4.8 0.00 0.00 0.00 98 1010.6
20211017093100 6 246 0.0 4.8 0.00 0.00 0.00 98 1010.6
20211017092548 6 290 0.0 4.8 0.00 0.00 0.00 98 1010.6
20211017092048 6 80 0.0 4.8 0.00 0.00 0.00 98 1010.7
20211017091829 6 0 0.0 6.4 0.00 0.00 0.00 98 1010.6
20211017091057 6 346 1.6 6.4 0.00 0.00 0.00 98 1010.4
20211017090549 6 0 0.0 6.4 0.00 0.00 0.00 98 1010.3
20211017090222 6 352 0.0 6.4 0.00 0.00 0.00 98 1010.3
20211017085547 6 58 0.0 4.8 0.00 0.00 0.00 98 1010.3
20211017085048 6 282 0.0 4.8 0.00 0.00 0.00 98 1010.3
20211017084649 6 288 0.0 4.8 0.00 0.00 0.00 98 1010.3
20211017084051 6 0 0.0 6.4 0.00 0.00 0.00 97 1010.1
20211017083556 6 0 0.0 6.4 0.00 0.00 0.00 97 1010.0
20211017083153 6 309 0.0 4.8 0.00 0.00 0.00 98 1010.0
20211017082548 6 0 0.0 4.8 0.00 0.00 0.00 98 1010.1
20211017082054 6 286 0.0 4.8 0.00 0.00 0.00 98 1010.2
20211017081621 6 0 0.0 4.8 0.00 0.00 0.00 97 1010.4
20211017081047 6 311 0.0 3.2 0.00 0.00 0.00 97 1010.3
20211017080555 6 0 0.0 3.2 0.00 0.00 0.00 97 1010.3
20211017080329 6 317 0.0 3.2 0.00 0.00 0.00 97 1010.1
20211017075549 6 0 0.0 3.2 0.00 0.00 0.00 97 1010.0
20211017075047 6 315 0.0 4.8 0.00 0.00 0.00 97 1010.0
20211017074625 6 5 0.0 4.8 0.00 0.00 0.00 97 1010.0
20211017074048 6 0 0.0 4.8 0.00 0.00 0.00 97 1010.0
20211017073552 6 5 0.0 3.2 0.00 0.00 0.00 97 1010.2
20211017073238 6 0 0.0 3.2 0.00 0.00 0.00 97 1010.1
20211017072550 6 0 0.0 4.8 0.00 0.00 0.00 97 1010.2
20211017072048 6 0 0.0 4.8 0.00 0.00 0.00 97 1010.2
20211017071650 6 0 0.0 3.2 0.00 0.00 0.00 97 1010.1
20211017071048 6 0 0.0 4.8 0.00 0.00 0.00 97 1010.2
20211017070547 6 0 0.0 4.8 0.00 0.00 0.00 97 1010.0
20211017070150 6 0 0.0 4.8 0.00 0.00 0.00 97 1010.0
20211017065548 6 0 0.0 4.8 0.00 0.00 0.00 97 1009.9
20211017065048 6 0 0.0 4.8 0.00 0.00 0.00 97 1009.9
20211017064658 6 345 0.0 3.2 0.00 0.00 0.00 97 1010.0
20211017064057 6 0 0.0 4.8 0.00 0.00 0.00 97 1010.0
20211017063617 6 0 0.0 4.8 0.00 0.00 0.00 97 1010.0
20211017063114 6 352 0.0 3.2 0.00 0.00 0.00 97 1010.0
20211017062557 6 313 0.0 4.8 0.00 0.00 0.00 97 1010.1
20211017062047 6 0 0.0 4.8 0.00 0.00 0.00 97 1010.2
20211017061613 6 0 0.0 3.2 0.00 0.00 0.00 97 1010.3
20211017061048 6 210 0.0 3.2 0.00 0.00 0.00 97 1010.2
20211017060547 6 0 0.0 3.2 0.00 0.00 0.00 97 1010.1
20211017060149 6 0 0.0 3.2 0.00 0.00 0.00 97 1010.2
20211017055603 6 0 0.0 3.2 0.00 0.00 0.00 97 1010.2
20211017055056 6 0 0.0 3.2 0.00 0.00 0.00 96 1010.2
20211017054629 6 0 0.0 3.2 0.00 0.00 0.00 96 1010.2
20211017054047 6 346 0.0 3.2 0.00 0.00 0.00 97 1010.2
20211017053610 6 308 0.0 3.2 0.00 0.00 0.00 97 1010.3
20211017053132 7 0 0.0 3.2 0.00 0.00 0.00 97 1010.3
20211017052549 7 334 0.0 3.2 0.00 0.00 0.00 96 1010.5
20211017052055 7 0 0.0 3.2 0.00 0.00 0.00 96 1010.5
20211017051630 7 316 0.0 3.2 0.00 0.00 0.00 96 1010.4
20211017051048 7 0 0.0 1.6 0.00 0.00 0.00 96 1010.4
20211017050547 7 0 0.0 3.2 0.00 0.00 0.00 96 1010.5
20211017050131 7 0 0.0 3.2 0.00 0.00 0.00 96 1010.5
20211017045547 7 281 0.0 6.4 0.00 0.00 0.00 96 1010.6
20211017045048 7 0 0.0 6.4 0.00 0.00 0.00 96 1010.6
20211017044636 7 313 0.0 4.8 0.00 0.00 0.00 96 1010.6
20211017044059 7 0 0.0 3.2 0.00 0.00 0.00 96 1010.7
20211017043550 7 317 0.0 3.2 0.00 0.00 0.00 96 1010.7
20211017043133 7 0 0.0 3.2 0.00 0.00 0.00 96 1010.7
20211017042548 7 0 0.0 4.8 0.00 0.00 0.00 96 1010.8
20211017042047 7 317 0.0 4.8 0.00 0.00 0.00 96 1010.7
20211017041719 7 338 0.0 3.2 0.00 0.00 0.00 96 1010.9
20211017041048 7 0 0.0 1.6 0.00 0.00 0.00 96 1010.9
20211017040628 7 5 0.0 3.2 0.00 0.00 0.00 96 1010.9
20211017040111 7 0 0.0 3.2 0.00 0.00 0.00 96 1010.8
20211017035600 7 0 0.0 3.2 0.00 0.00 0.00 96 1010.9
20211017035048 7 317 0.0 6.4 0.00 0.00 0.00 96 1010.9
20211017034701 7 0 0.0 6.4 0.00 0.00 0.00 96 1011.0
20211017034049 7 314 0.0 3.2 0.00 0.00 0.00 96 1011.0
20211017033548 7 0 0.0 3.2 0.00 0.00 0.00 96 1010.9
20211017033104 7 57 0.0 3.2 0.00 0.00 0.00 95 1010.9
20211017032549 7 0 0.0 3.2 0.00 0.00 0.00 95 1010.9
20211017032051 7 321 0.0 3.2 0.00 0.00 0.00 95 1010.9
20211017031617 7 0 0.0 3.2 0.00 0.00 0.00 95 1011.0
20211017031048 7 0 0.0 3.2 0.00 0.00 0.00 96 1011.0
20211017030548 7 328 0.0 3.2 0.00 0.00 0.00 96 1011.0
20211017030129 7 322 0.0 3.2 0.00 0.00 0.00 96 1010.9
20211017025548 7 0 0.0 3.2 0.00 0.00 0.00 96 1011.0
20211017025055 7 0 0.0 3.2 0.00 0.00 0.00 96 1011.0
20211017024636 7 0 0.0 4.8 0.00 0.00 0.00 96 1010.8
20211017024048 7 296 0.0 4.8 0.00 0.00 0.00 96 1010.8
20211017023547 7 317 0.0 3.2 0.00 0.00 0.00 96 1010.9
20211017023126 7 0 0.0 3.2 0.00 0.00 0.00 96 1010.8
20211017022549 7 0 0.0 3.2 0.00 0.00 0.00 96 1010.9
20211017022048 7 0 0.0 4.8 0.00 0.00 0.00 96 1010.7
20211017021827 8 0 0.0 4.8 0.00 0.00 0.00 96 1010.7
20211017021047 8 0 0.0 3.2 0.00 0.00 0.00 96 1010.7
20211017020547 8 297 0.0 3.2 0.00 0.00 0.00 96 1010.7
20211017020227 8 0 0.0 3.2 0.00 0.00 0.00 96 1010.5
20211017015605 8 306 0.0 3.2 0.00 0.00 0.00 96 1010.5
20211017015047 8 314 0.0 3.2 0.00 0.00 0.00 96 1010.6
20211017014723 8 0 0.0 3.2 0.00 0.00 0.00 96 1010.5
20211017014048 8 0 0.0 4.8 0.00 0.00 0.00 96 1010.3
20211017013548 8 286 0.0 4.8 0.00 0.00 0.00 95 1010.2
20211017013132 8 352 1.6 4.8 0.00 0.00 0.00 95 1010.0
20211017012547 8 5 0.0 3.2 0.00 0.00 0.00 95 1010.5
20211017012048 9 324 0.0 3.2 0.00 0.00 0.00 95 1010.2
20211017011644 9 330 0.0 3.2 0.00 0.00 0.00 95 1010.3
20211017011053 9 306 0.0 4.8 0.00 0.00 0.00 95 1010.3
20211017010604 10 0 0.0 6.4 0.00 0.00 0.00 95 1010.3
20211017010231 10 0 0.0 6.4 0.00 0.00 0.00 95 1010.2
20211017005548 10 301 0.0 6.4 0.00 0.00 0.00 96 1009.9
20211017005047 10 0 0.0 11.3 0.00 0.00 0.00 96 1009.7
20211017004601 10 323 1.6 11.3 0.00 0.00 0.00 96 1009.6
20211017004047 10 340 1.6 6.4 0.00 0.00 0.00 96 1009.2
20211017003548 10 0 0.0 6.4 0.00 0.00 0.00 96 1009.1
20211017003118 10 0 0.0 6.4 0.00 0.00 0.00 96 1008.9
20211017002548 10 5 0.0 4.8 0.00 0.00 0.00 97 1008.9
20211017002050 10 344 0.0 4.8 0.00 0.00 0.00 96 1008.8
20211017001619 10 313 0.0 6.4 0.00 0.00 0.00 97 1009.3
20211017001047 10 296 0.0 6.4 0.00 0.00 0.00 97 1009.3
20211017000551 10 0 0.0 4.8 0.00 0.00 0.00 97 1009.3
20211017000251 10 0 0.0 4.8 0.00 0.00 0.00 97 1009.1
20211016235556 10 0 1.6 4.8 0.00 0.00 0.00 97 1008.6
20211016235048 10 335 1.6 6.4 0.00 0.00 0.00 96 1008.5
20211016234640 10 344 1.6 6.4 0.00 0.00 0.00 96 1008.1
20211016234047 11 5 1.6 6.4 0.00 0.00 0.00 97 1008.7
20211016233548 11 0 1.6 6.4 0.00 0.00 0.00 97 1009.0
20211016233154 11 306 1.6 6.4 0.00 0.00 0.00 97 1008.6
20211016232547 11 352 1.6 6.4 0.00 0.00 0.00 97 1008.6
20211016232046 11 0 1.6 6.4 0.00 0.00 0.00 97 1007.9
20211016231629 11 5 1.6 8.0 0.00 0.00 0.00 97 1008.0
20211016231114 11 39 1.6 11.3 0.00 0.00 0.00 96 1008.1
20211016230548 11 352 3.2 11.3 0.00 0.00 0.00 96 1008.1
20211016230153 11 314 1.6 9.7 0.00 0.00 0.00 96 1007.9
20211016225548 11 346 1.6 9.7 0.00 0.00 0.00 96 1007.9
20211016225117 11 0 1.6 8.0 0.00 0.00 0.00 96 1008.0
20211016224624 11 5 1.6 12.9 0.00 0.00 0.00 96 1008.2
20211016224047 11 350 1.6 12.9 0.00 0.00 0.00 96 1008.2
20211016223604 11 348 3.2 12.9 0.00 0.00 0.00 96 1008.5
20211016223112 11 0 1.6 12.9 0.00 0.00 0.00 96 1008.3
20211016222548 11 29 1.6 9.7 0.00 0.00 0.00 96 1008.2
20211016222047 11 5 1.6 9.7 0.00 0.00 0.00 96 1007.9
20211016221610 12 343 1.6 12.9 0.00 0.00 0.00 95 1007.7
20211016221052 12 346 3.2 14.5 0.00 0.00 0.00 95 1007.7
20211016220547 12 326 3.2 14.5 0.00 0.00 0.00 96 1007.8
20211016220143 13 0 1.6 11.3 0.00 0.00 0.00 96 1007.7
20211016215548 13 306 1.6 8.0 0.00 0.00 0.00 97 1007.1
20211016215048 13 332 0.0 8.0 0.00 0.00 0.00 97 1006.5
20211016214658 13 0 1.6 6.4 0.00 0.00 0.00 97 1006.2
20211016214047 13 352 1.6 6.4 0.00 0.00 0.00 97 1006.2
20211016213548 13 349 0.0 6.4 0.00 0.00 0.00 97 1006.8
20211016213059 13 352 0.0 6.4 0.00 0.00 0.00 97 1007.1
20211016212548 13 0 1.6 6.4 0.00 0.00 0.00 97 1007.1
20211016212048 13 198 0.0 6.4 0.00 0.00 0.00 96 1006.9
20211016211628 13 106 0.0 8.0 0.00 0.00 0.00 97 1006.7
20211016211055 13 136 1.6 8.0 0.00 0.00 0.00 96 1006.7
20211016210548 13 294 0.0 6.4 0.00 0.00 0.00 97 1006.2
20211016210208 13 289 0.0 6.4 0.00 0.00 0.00 97 1006.0
20211016205549 13 0 1.6 6.4 0.00 0.00 0.00 96 1005.4
20211016205048 13 277 0.0 6.4 0.00 0.00 0.00 96 1005.5
20211016204733 13 0 0.0 6.4 0.00 0.00 0.00 96 1005.7
20211016204105 13 360 1.6 6.4 0.00 0.00 0.00 96 1005.9
20211016203610 13 282 1.6 6.4 0.00 0.00 0.00 96 1006.0
20211016203208 13 221 0.0 4.8 0.00 0.00 0.00 96 1006.2
20211016202601 13 333 0.0 4.8 0.00 0.00 0.00 96 1006.2
20211016202050 14 286 0.0 4.8 0.00 0.00 0.00 96 1006.3
20211016201747 14 0 0.0 4.8 0.00 0.00 0.00 95 1006.4
20211016201048 14 0 0.0 4.8 0.00 0.00 0.00 95 1006.6
20211016200559 14 0 0.0 4.8 0.00 0.00 0.00 95 1006.5
20211016200124 14 188 0.0 4.8 0.00 0.00 0.00 94 1006.1
20211016195547 14 0 0.0 6.4 0.00 0.00 0.00 94 1005.7
20211016195049 14 141 1.6 6.4 0.00 0.00 0.00 95 1005.9
20211016194635 14 0 0.0 4.8 0.00 0.00 0.00 95 1006.3
20211016194054 14 0 1.6 4.8 0.00 0.00 0.00 95 1006.0
20211016193609 14 194 0.0 3.2 0.00 0.00 0.00 95 1006.2
20211016193111 14 0 0.0 4.8 0.00 0.00 0.00 95 1005.9
20211016192548 14 0 0.0 4.8 0.00 0.00 0.00 95 1005.8
20211016192047 14 0 0.0 6.4 0.00 0.00 0.00 95 1005.8
20211016191628 14 0 0.0 6.4 0.00 0.00 0.00 95 1005.6
20211016191048 14 0 0.0 4.8 0.00 0.00 0.00 95 1005.6
20211016190552 14 0 0.0 4.8 0.00 0.00 0.00 95 1005.5
20211016190132 14 0 0.0 6.4 0.00 0.00 0.00 95 1005.3
20211016185548 14 277 1.6 6.4 0.00 0.00 0.00 95 1005.5
20211016185048 14 0 0.0 6.4 0.00 0.00 0.00 94 1005.4
20211016184619 14 0 0.0 6.4 0.00 0.00 0.00 95 1005.2
20211016184100 15 0 0.0 6.4 0.00 0.00 0.00 94 1005.5
20211016183607 15 0 0.0 6.4 0.00 0.00 0.00 93 1005.4
20211016183146 15 111 0.0 6.4 0.00 0.00 0.00 92 1005.4
20211016182548 15 294 1.6 11.3 0.00 0.00 0.00 90 1005.3
20211016182111 16 0 1.6 14.5 0.00 0.00 0.00 84 1006.0
20211016181657 18 0 3.2 19.3 0.00 0.00 0.00 77 1006.0
20211016181047 21 327 4.8 19.3 0.00 0.00 0.00 72 1005.8
20211016180547 21 166 3.2 19.3 0.00 0.00 0.00 78 1004.9
20211016180157 21 198 4.8 17.7 0.00 0.00 0.00 79 1004.6
20211016175547 21 181 4.8 17.7 0.00 0.00 0.00 80 1004.4
20211016175049 21 173 3.2 12.9 0.00 0.00 0.00 80 1004.6
20211016174701 20 197 3.2 12.9 0.00 0.00 0.00 81 1004.7
20211016174049 20 172 4.8 12.9 0.00 0.00 0.00 80 1004.8
20211016173548 20 130 3.2 12.9 0.00 0.00 0.00 80 1005.0
20211016173251 21 146 4.8 14.5 0.00 0.00 0.00 79 1004.9
20211016172547 21 163 3.2 16.1 0.00 0.00 0.00 78 1005.0
20211016172048 20 156 4.8 16.1 0.00 0.00 0.00 79 1005.1
20211016171628 20 180 4.8 17.7 0.00 0.00 0.00 79 1005.1
20211016171047 20 155 6.4 17.7 0.00 0.00 0.00 79 1005.3
20211016170544 20 168 4.8 14.5 0.00 0.00 0.00 79 1005.3
20211016170154 20 173 4.8 17.7 0.00 0.00 0.00 79 1005.5
20211016165558 20 165 4.8 19.3 0.00 0.00 0.00 79 1005.7
20211016165048 20 171 4.8 24.1 0.00 0.00 0.00 81 1005.7
20211016164639 20 156 4.8 24.1 0.00 0.00 0.00 80 1005.7